DMSP 5D-2 F13 DEB, 40473

Orbit data source: Space-Track

DMSP 5D-2 F13 DEB, 40473 is space debris in SSO originally from a launch on Fri, 24 Mar 1995 UTC launched from the Air Force Western Test Range (AFWTR). Debris objects in space refer to the collection of defunct objects orbiting the Earth. Examples of debris include non-operational satellites, rocket bodies, and fragments generated from explosions, collisions, or faulty payload assembly.

Loading next visibility...
Identifier
40473, 1995-015BR
Orbit
SSO
Country
Flag of USUS
Related business
Manufacturer
Unknown
Mission
Spacecraft
Bus & Motor
Unknown
Mass
Unknown
Launch date (UTC)
1995-03-24 (31 years ago)
Launch vehicle
Unknown
Launch site
Air Force Western Test Range (AFWTR)
Object type
Payload
Rocket body
Debris
Shape & HBR
Unknown shape, 0.1 m
Radar Cross Section
Small (<0.1 m²)

Expand to show TLE details & history
Last TLE update: 2 days ago

TLE from 2 days ago
0 DMSP 5D-2 F13 DEB
1 40473U 95015BR  25347.40959733  .00003100  00000-0  20371-2 0  9998
2 40473  98.7218 193.8559 0120601 173.7371 186.5335 13.99126441546572
Epoch: 2025-12-13T09:49Z
TLE epoch observation values (Epoch: 2025-12-13T09:49:49.209Z)
Latitude
-0.00002°
Longitude
-35.93641°
Altitude
986.905 km
Speed
7.314 km/s
True Right ascension
12h 55m 25s
True Declination
0° 00' 00"
Sunlit
Object was in daylight at epoch
Visualization orbit readout
Latitude
Unknown
Longitude
Unknown
Altitude
Unknown
Speed
Unknown
Apparent Right ascension
Unknown
Apparent Declination
Unknown
Sunlit
N/A
Visualization observer readout
Local Sidereal Time
05:20:01
Azimuth
Unknown
Elevation
Unknown
Doppler factor
Unknown
Orbital elements
Apogee altitude
981.711 km
Perigee altitude
806.305 km
Semi-major axis
7,272.145 km
Eccentricity
0.01206
Inclination
98.7218°
RAAN
193.8559°
Arg. of periapsis
173.7371°
True anomaly
186.37857°
Mean anomaly
186.5335°
Eccentric anomaly
186.45581°
Mean motion
3.49985 °/min
Orbital period
102.86 mins
BSTAR
0.0020371
Loading maneuver chart data...
Computing Atmospheric mass density...

Documentation

Showing up to 5 results
|